Weather History for KLNR - February, 2014

Change the Weather History Date:

Thursday, February 13, 2014

  Actual Average Record
Temperature  
Mean Temperature 20 °F -  
Max Temperature 33 °F 31 °F 48 °F (2011)
Min Temperature 6 °F 16 °F -15 °F (2008)
Degree Days  
Heating Degree Days 46    
Moisture  
Dew Point 14 °F    
Average Humidity 78    
Maximum Humidity 92    
Minimum Humidity 66    
Precipitation  
Precipitation 0.02 in - - ()
Sea Level Pressure  
Sea Level Pressure 29.68 in    
Wind  
Wind Speed 8 mph (SSW)    
Max Wind Speed 26 mph    
Max Gust Speed 34 mph    
Visibility 5 miles    
Events Fog , Snow    
Averages and records for this station are not official NWS values.
T = Trace of Precipitation, MM = Missing Value Source: NWS Daily Summary

Daily Weather History Graph

Daily Weather History Graph

Search for Another Location

Airport or City:

Trip Planner

Search our weather history database for the weather conditions in past years. The results will help you decide how hot, cold, wet, or windy it might be!

Date:

Astronomy

Feb. 13, 2014 Rise Set
Actual Time 7:01 AM CST 5:29 PM CST
Civil Twilight 6:31 AM CST 5:58 PM CST
Nautical Twilight 5:58 AM CST 6:31 PM CST
Astronomical Twilight 5:25 AM CST 7:04 PM CST
Moon 4:37 PM CST (2/13) 5:55 AM CST (2/13)
Length of Visible Light 11h 26m
Length of Day
10h 27m
Waxing Gibbous, 99% of the Moon is Illuminated
Feb 13
Waxing Gibbous
Feb 14
Full
Feb 22
Last Quarter
Mar 1
New
Mar 8
First Quarter

Hourly Weather History & Observations

Time (CST) Temp. Windchill Dew Point Humidity Pressure Visibility Wind Dir Wind Speed Gust Speed Precip Events Conditions
12:56 AM 6.1 °F - 3.0 °F 87% 29.97 in 4.0 mi Calm Calm - N/A   Overcast
1:56 AM 8.1 °F - 5.0 °F 87% 29.93 in 4.0 mi Calm Calm - N/A   Overcast
2:56 AM 10.9 °F 4.7 °F 7.0 °F 84% 29.91 in 4.0 mi ESE 3.5 mph - N/A   Overcast
3:56 AM 12.9 °F - 10.0 °F 88% 29.90 in 4.0 mi Calm Calm - N/A   Overcast
4:56 AM 14.0 °F 5.1 °F 10.0 °F 84% 29.85 in 4.0 mi ESE 5.8 mph - N/A   Overcast
5:19 AM 15.1 °F 5.2 °F 10.9 °F 84% 29.81 in 5.0 mi East 6.9 mph - N/A   Scattered Clouds
5:56 AM 15.1 °F 3.3 °F 10.9 °F 84% 29.81 in 5.0 mi East 9.2 mph - N/A   Partly Cloudy
6:56 AM 19.9 °F 13.4 °F 10.9 °F 68% 29.78 in 7.0 mi SSE 4.6 mph - N/A   Overcast
7:11 AM 19.9 °F 8.6 °F 10.9 °F 68% 29.73 in 1.8 mi SSE 10.4 mph - 0.00 in Snow Light Snow
7:21 AM 19.9 °F 9.3 °F 12.9 °F 74% 29.73 in 1.0 mi SSE 9.2 mph - 0.00 in Snow Light Snow
7:34 AM 19.9 °F 7.9 °F 14.0 °F 78% 29.71 in 2.0 mi South 11.5 mph - 0.00 in Snow Light Snow
7:42 AM 19.9 °F 12.1 °F 14.0 °F 78% 29.72 in 6.0 mi South 5.8 mph - 0.00 in   Haze
7:56 AM 19.9 °F 12.1 °F 14.0 °F 78% 29.75 in 6.0 mi South 5.8 mph - 0.00 in   Haze
8:10 AM 21.0 °F 9.3 °F 12.9 °F 71% 29.71 in 6.0 mi South 11.5 mph - N/A   Haze
8:21 AM 19.9 °F 9.3 °F 12.9 °F 74% 29.71 in 1.8 mi South 9.2 mph - 0.00 in Snow Light Snow
8:35 AM 19.9 °F 9.3 °F 14.0 °F 78% 29.70 in 2.0 mi South 9.2 mph - 0.00 in Snow Light Snow
8:56 AM 21.0 °F 7.6 °F 14.0 °F 74% 29.70 in 2.5 mi South 15.0 mph 20.7 mph 0.00 in Snow Light Snow
9:09 AM 21.0 °F 7.6 °F 15.1 °F 78% 29.67 in 1.2 mi South 15.0 mph - 0.00 in Snow Light Snow
9:16 AM 21.0 °F 6.2 °F 15.1 °F 78% 29.66 in 0.5 mi South 18.4 mph 27.6 mph 0.01 in Snow Snow
9:23 AM 19.9 °F 6.7 °F 17.1 °F 89% 29.66 in 0.2 mi South 13.8 mph 27.6 mph 0.01 in Fog , Snow Heavy Snow
9:34 AM 19.9 °F 7.9 °F 18.0 °F 92% 29.66 in 0.2 mi South 11.5 mph - 0.02 in Fog , Snow Snow
9:42 AM 19.9 °F 9.3 °F 18.0 °F 92% 29.66 in 0.2 mi South 9.2 mph 17.3 mph 0.02 in Fog , Snow Light Snow
9:47 AM 21.0 °F 10.6 °F 18.0 °F 88% 29.65 in 0.8 mi South 9.2 mph - 0.02 in Snow Light Snow
9:56 AM 21.0 °F 12.4 °F 17.1 °F 85% 29.69 in 1.5 mi SSW 6.9 mph - 0.02 in Snow Light Snow
10:12 AM 21.9 °F 11.0 °F 17.1 °F 82% 29.65 in 3.0 mi SSW 10.4 mph - 0.00 in Snow Light Snow
10:56 AM 24.1 °F 13.1 °F 19.0 °F 81% 29.65 in - SSW 11.5 mph 20.7 mph 0.00 in   Overcast
11:56 AM 25.0 °F 16.3 °F 19.0 °F 78% 29.60 in - SW 8.1 mph 18.4 mph N/A   Overcast
12:56 PM 27.0 °F 17.3 °F 21.0 °F 78% 29.54 in 6.0 mi SW 10.4 mph - N/A   Haze
1:56 PM 28.9 °F 20.4 °F 21.9 °F 75% 29.51 in 6.0 mi SW 9.2 mph - N/A   Haze
2:56 PM 30.0 °F 24.1 °F 24.1 °F 79% 29.47 in 6.0 mi SSW 5.8 mph - N/A   Haze
3:56 PM 33.1 °F 24.4 °F 25.0 °F 72% 29.48 in 8.0 mi WSW 11.5 mph - N/A   Overcast
4:30 PM 28.9 °F 14.3 °F 19.0 °F 67% 29.49 in 4.0 mi West 26.5 mph 34.5 mph N/A   Haze
4:56 PM 25.0 °F 10.9 °F 16.0 °F 69% 29.55 in 6.0 mi WNW 19.6 mph 29.9 mph N/A   Haze
5:04 PM 25.0 °F 10.6 °F 15.1 °F 66% 29.53 in 10.0 mi WNW 20.7 mph 26.5 mph N/A   Overcast
5:56 PM 21.9 °F 6.9 °F 14.0 °F 72% 29.59 in 10.0 mi WNW 19.6 mph 27.6 mph N/A   Overcast
6:56 PM 21.0 °F 8.1 °F 12.9 °F 71% 29.61 in 10.0 mi WNW 13.8 mph - N/A   Overcast
7:56 PM 21.0 °F 6.6 °F 12.9 °F 71% 29.62 in 10.0 mi West 17.3 mph - N/A   Overcast
8:56 PM 19.9 °F 4.8 °F 10.9 °F 68% 29.64 in 10.0 mi WNW 18.4 mph - N/A   Overcast
9:41 PM 17.1 °F 1.0 °F 9.0 °F 71% 29.63 in 10.0 mi WNW 18.4 mph - N/A   Scattered Clouds
9:56 PM 17.1 °F 1.0 °F 9.0 °F 71% 29.66 in 10.0 mi WNW 18.4 mph - N/A   Clear
10:56 PM 14.0 °F -0.8 °F 7.0 °F 74% 29.67 in 10.0 mi WNW 13.8 mph - N/A   Clear
11:56 PM 10.9 °F -1.8 °F 5.0 °F 77% 29.69 in 10.0 mi WNW 9.2 mph - N/A   Clear